Home   Weather   Freital   Past weeks

Flag for Germany Past Weather in Freital, Saxony, Germany — Yesterday and Last 2 Weeks

Now
54 °F

Passing clouds.


Feels Like: 49 °F
Forecast: 42 / 58 °F
Wind: 14 mph from East

Location: Dresden-Klotzsche

Current Time: Apr 30, 2017 at 1:17:21 pm

Latest Report: Apr 30, 2017 at 12:50 pm


Visibility: N/A

Pressure: 30.09 "Hg

Humidity: 41%

Dew Point: 30 °F

Location of FreitalLocation

Past Weather in Freital — Graph

°F

Freital Temperature Yesterday

Maximum temperature yesterday: 48 °F (at 11:50 am)
Minimum temperature yesterday: 36 °F (at 4:20 am)
Average temperature yesterday: 43 °F

High & Low Weather Summary for the Past Weeks

 TemperatureHumidityPressure
High57 °F (Apr 24, 4:20 pm)100% (Apr 18, 4:50 am)30.54 "Hg (Apr 18, 4:50 am)
Low28 °F (Apr 19, 5:20 am)38% (Apr 24, 3:20 pm)29.59 "Hg (Apr 25, 5:50 am)
Average42 °F72%30.05 "Hg
* Reported Apr 15 12:20 pm — Apr 30 12:20 pm, Freital, Weather by CustomWeather, © 2017

Note: Actual official high and low records may vary slightly from our data, if they occured in-between our weather recording intervals... More about our weather records

Advertising

Freital Weather History for the Previous 24 Hours

Scroll right to see more
 ConditionsComfort  
Time TempWeatherWind HumidityBarometerVisibility
12:20 pm
Sun, Apr 30
54 °FPassing clouds.12 mph44%30.09 "HgN/A
11:50 am54 °FPassing clouds.12 mph44%30.09 "HgN/A
11:20 am52 °FPassing clouds.12 mph44%30.09 "HgN/A
10:50 am52 °FPassing clouds.9 mph41%30.12 "HgN/A
10:20 am50 °FPassing clouds.12 mph47%30.12 "HgN/A
9:50 am48 °FPassing clouds.12 mph46%30.12 "HgN/A
9:20 am48 °FPassing clouds.10 mph54%30.12 "HgN/A
8:50 am46 °FSunny.10 mph53%30.12 "Hg10 mi
8:20 am45 °FSunny.7 mph61%30.12 "Hg10 mi
7:50 am41 °FSunny.3 mph70%30.12 "Hg10 mi
7:20 am39 °FSunny.2 mph75%30.12 "Hg10 mi
6:50 am37 °FSunny.3 mph75%30.12 "Hg10 mi
6:20 am36 °FSunny.3 mph81%30.12 "Hg10 mi
5:50 am34 °FSunny.2 mph81%30.12 "Hg10 mi
5:20 am34 °FClear.1 mph81%30.12 "Hg10 mi
4:50 am34 °FClear.3 mph93%30.12 "Hg10 mi
4:20 am34 °FPassing clouds.3 mph87%30.12 "HgN/A
3:50 am36 °FClear.3 mph75%30.09 "Hg10 mi
3:20 am36 °FClear.3 mph81%30.09 "Hg10 mi
2:50 am39 °FClear.7 mph70%30.09 "Hg10 mi
2:20 am39 °FClear.5 mph70%30.09 "Hg10 mi
1:50 am39 °FClear.5 mph75%30.09 "Hg10 mi
1:20 am37 °FClear.5 mph81%30.09 "Hg10 mi
12:50 am39 °FClear.2 mph75%30.09 "Hg10 mi
12:20 am41 °FClear.2 mph76%30.09 "Hg10 mi
11:50 pm
Sat, Apr 29
43 °FClear.2 mph71%30.09 "Hg10 mi
11:20 pm41 °FClear.1 mph70%30.09 "Hg10 mi
10:50 pm45 °FClear.1 mph61%30.09 "Hg10 mi
9:50 pm45 °FClear.1 mph66%30.07 "Hg10 mi
9:20 pm45 °FClear.3 mph66%30.07 "Hg10 mi
8:50 pm46 °FClear.2 mph62%30.07 "Hg10 mi
8:20 pm46 °FSunny.1 mph62%30.07 "Hg10 mi
7:50 pm46 °FPartly sunny.2 mph62%30.07 "HgN/A
7:20 pm46 °FPartly sunny.3 mph62%30.04 "HgN/A
6:50 pm48 °FPartly sunny.6 mph58%30.04 "HgN/A
6:20 pm48 °FBroken clouds.6 mph58%30.04 "HgN/A
5:50 pm48 °FBroken clouds.7 mph58%30.04 "HgN/A
5:20 pm48 °FBroken clouds.3 mph66%30.04 "HgN/A
4:50 pm48 °FPartly sunny.3 mph66%30.04 "HgN/A
4:20 pm46 °FBroken clouds.5 mph71%30.04 "HgN/A
3:50 pm48 °FBroken clouds.6 mph66%30.04 "HgN/A
3:20 pm46 °FPartly sunny.5 mph66%30.04 "HgN/A
2:50 pm46 °FPartly sunny.5 mph76%30.04 "HgN/A
2:20 pm45 °FLight rain. Partly sunny.6 mph87%30.04 "HgN/A
1:50 pm43 °FSprinkles. Broken clouds.14 mph81%30.04 "HgN/A
Weather by CustomWeather, © 2017

See weather overviewHow to use our weather pages